Time,TemperatureF,DewpointF,PressureIn,WindDirection,WindDirectionDegrees,WindSpeedMPH,WindSpeedGustMPH,Humidity,HourlyPrecipIn,Conditions,Clouds,dailyrainin,SoftwareType,DateUTC
2013-07-13 00:13:00,66.7,63.0,25.67,North,349,9.0,14.0,88,0.00,,,0.00,weatherlink.com 1.10,2013-07-13 06:13:00,
2013-07-13 00:28:00,66.4,64.0,25.67,NNE,32,9.0,10.0,90,0.00,,,0.00,weatherlink.com 1.10,2013-07-13 06:28:00,
2013-07-13 00:43:00,66.7,63.0,25.67,NE,50,8.0,10.0,89,0.00,,,0.00,weatherlink.com 1.10,2013-07-13 06:43:00,
2013-07-13 00:58:00,66.6,64.0,25.65,ENE,60,12.0,13.0,90,0.00,,,0.00,weatherlink.com 1.10,2013-07-13 06:58:00,
2013-07-13 01:13:00,66.7,64.0,25.64,ENE,63,10.0,13.0,91,0.00,,,0.00,weatherlink.com 1.10,2013-07-13 07:13:00,
2013-07-13 01:28:00,66.5,64.0,25.64,ENE,60,6.0,8.0,92,0.00,,,0.00,weatherlink.com 1.10,2013-07-13 07:28:00,
2013-07-13 01:43:00,66.5,64.0,25.64,ENE,64,7.0,8.0,91,0.00,,,0.00,weatherlink.com 1.10,2013-07-13 07:43:00,
2013-07-13 01:58:00,66.5,63.0,25.63,ENE,77,5.0,7.0,89,0.00,,,0.00,weatherlink.com 1.10,2013-07-13 07:58:00,
2013-07-13 02:13:00,66.2,63.0,25.62,East,101,5.0,7.0,90,0.00,,,0.00,weatherlink.com 1.10,2013-07-13 08:13:00,
2013-07-13 02:28:00,65.9,63.0,25.62,SE,129,5.0,9.0,91,0.00,,,0.00,weatherlink.com 1.10,2013-07-13 08:28:00,
2013-07-13 02:43:00,65.8,63.0,25.63,ESE,118,6.0,10.0,91,0.00,,,0.00,weatherlink.com 1.10,2013-07-13 08:43:00,
2013-07-13 02:58:00,65.8,63.0,25.63,ESE,115,5.0,9.0,91,0.00,,,0.00,weatherlink.com 1.10,2013-07-13 08:58:00,
2013-07-13 03:13:00,65.9,63.0,25.64,ESE,122,1.0,4.0,90,0.00,,,0.00,weatherlink.com 1.10,2013-07-13 09:13:00,
2013-07-13 03:28:00,65.9,63.0,25.64,SSE,159,4.0,5.0,90,0.00,,,0.00,weatherlink.com 1.10,2013-07-13 09:28:00,
2013-07-13 03:43:00,65.6,63.0,25.64,SSW,201,2.0,3.0,91,0.00,,,0.00,weatherlink.com 1.10,2013-07-13 09:43:00,
2013-07-13 03:58:00,65.2,63.0,25.64,SSW,194,3.0,4.0,92,0.00,,,0.00,weatherlink.com 1.10,2013-07-13 09:58:00,
2013-07-13 04:13:00,65.0,63.0,25.64,WSW,248,3.0,4.0,93,0.00,,,0.00,weatherlink.com 1.10,2013-07-13 10:13:00,
2013-07-13 04:28:00,65.0,63.0,25.64,SW,225,5.0,5.0,93,0.00,,,0.00,weatherlink.com 1.10,2013-07-13 10:28:00,
2013-07-13 04:43:00,64.9,63.0,25.65,SW,215,4.0,6.0,93,0.00,,,0.00,weatherlink.com 1.10,2013-07-13 10:43:00,
2013-07-13 04:58:00,65.0,63.0,25.66,SSW,201,4.0,6.0,93,0.00,,,0.00,weatherlink.com 1.10,2013-07-13 10:58:00,
2013-07-13 05:13:00,65.1,63.0,25.66,SW,229,4.0,6.0,92,0.00,,,0.00,weatherlink.com 1.10,2013-07-13 11:13:00,
2013-07-13 05:28:00,64.7,63.0,25.67,West,259,1.0,6.0,93,0.00,,,0.00,weatherlink.com 1.10,2013-07-13 11:28:00,
2013-07-13 05:43:00,64.7,63.0,25.67,NNW,335,2.0,5.0,93,0.00,,,0.00,weatherlink.com 1.10,2013-07-13 11:43:00,
2013-07-13 05:58:00,64.7,63.0,25.67,North,355,1.0,3.0,93,0.00,,,0.00,weatherlink.com 1.10,2013-07-13 11:58:00,
2013-07-13 06:13:00,64.2,62.0,25.67,NW,307,2.0,3.0,93,0.00,,,0.00,weatherlink.com 1.10,2013-07-13 12:13:00,
2013-07-13 06:28:00,64.3,63.0,25.67,WSW,243,2.0,2.0,94,0.00,,,0.00,weatherlink.com 1.10,2013-07-13 12:28:00,
2013-07-13 06:43:00,64.9,63.0,25.67,West,266,2.0,3.0,94,0.00,,,0.00,weatherlink.com 1.10,2013-07-13 12:43:00,
2013-07-13 06:58:00,65.5,64.0,25.67,WNW,294,2.0,2.0,94,0.00,,,0.00,weatherlink.com 1.10,2013-07-13 12:58:00,
2013-07-13 07:13:00,67.3,64.0,25.68,West,263,2.0,2.0,90,0.00,,,0.00,weatherlink.com 1.10,2013-07-13 13:13:00,
2013-07-13 07:29:00,68.2,65.0,25.68,WNW,295,2.0,3.0,89,0.00,,,0.00,weatherlink.com 1.10,2013-07-13 13:29:00,
2013-07-13 07:44:00,68.8,65.0,25.68,NW,318,2.0,3.0,87,0.00,,,0.00,weatherlink.com 1.10,2013-07-13 13:44:00,
2013-07-13 07:59:00,68.9,64.0,25.68,NW,306,0.0,2.0,85,0.00,,,0.00,weatherlink.com 1.10,2013-07-13 13:59:00,
2013-07-13 08:14:00,69.2,65.0,25.68,WSW,252,1.0,2.0,85,0.00,,,0.00,weatherlink.com 1.10,2013-07-13 14:14:00,
2013-07-13 08:29:00,69.4,65.0,25.68,West,266,2.0,3.0,85,0.00,,,0.00,weatherlink.com 1.10,2013-07-13 14:29:00,
2013-07-13 08:44:00,70.0,65.0,25.68,West,266,3.0,4.0,84,0.00,,,0.00,weatherlink.com 1.10,2013-07-13 14:44:00,
2013-07-13 08:59:00,71.0,65.0,25.69,West,277,3.0,4.0,82,0.00,,,0.00,weatherlink.com 1.10,2013-07-13 14:59:00,
2013-07-13 09:14:00,71.7,65.0,25.68,West,259,1.0,3.0,79,0.00,,,0.00,weatherlink.com 1.10,2013-07-13 15:14:00,
2013-07-13 09:29:00,73.2,65.0,25.68,NW,309,4.0,4.0,75,0.00,,,0.00,weatherlink.com 1.10,2013-07-13 15:29:00,
2013-07-13 09:44:00,74.9,64.0,25.68,SW,222,4.0,5.0,69,0.00,,,0.00,weatherlink.com 1.10,2013-07-13 15:44:00,
2013-07-13 09:59:00,75.7,63.0,25.68,West,264,1.0,5.0,64,0.00,,,0.00,weatherlink.com 1.10,2013-07-13 15:59:00,
2013-07-13 10:14:00,76.3,64.0,25.68,SW,228,2.0,6.0,66,0.00,,,0.00,weatherlink.com 1.10,2013-07-13 16:14:00,
2013-07-13 10:29:00,76.2,64.0,25.68,WSW,256,3.0,5.0,67,0.00,,,0.00,weatherlink.com 1.10,2013-07-13 16:29:00,
2013-07-13 10:44:00,75.9,65.0,25.68,SW,219,4.0,6.0,68,0.00,,,0.00,weatherlink.com 1.10,2013-07-13 16:44:00,
2013-07-13 10:59:00,76.9,64.0,25.68,WSW,255,2.0,5.0,65,0.00,,,0.00,weatherlink.com 1.10,2013-07-13 16:59:00,
2013-07-13 11:14:00,77.1,63.0,25.68,West,263,4.0,7.0,63,0.00,,,0.00,weatherlink.com 1.10,2013-07-13 17:14:00,
2013-07-13 11:29:00,77.2,65.0,25.67,West,264,2.0,6.0,66,0.00,,,0.00,weatherlink.com 1.10,2013-07-13 17:29:00,
2013-07-13 11:44:00,78.5,63.0,25.68,WSW,246,2.0,8.0,59,0.00,,,0.00,weatherlink.com 1.10,2013-07-13 17:44:00,
2013-07-13 11:59:00,79.0,63.0,25.67,WNW,284,5.0,10.0,58,0.00,,,0.00,weatherlink.com 1.10,2013-07-13 17:59:00,
2013-07-13 12:14:00,79.8,64.0,25.67,WSW,246,6.0,10.0,58,0.00,,,0.00,weatherlink.com 1.10,2013-07-13 18:14:00,
2013-07-13 12:29:00,81.6,62.0,25.67,NW,314,4.0,10.0,52,0.00,,,0.00,weatherlink.com 1.10,2013-07-13 18:29:00,
2013-07-13 12:44:00,82.3,62.0,25.66,WNW,284,3.0,8.0,51,0.00,,,0.00,weatherlink.com 1.10,2013-07-13 18:44:00,
2013-07-13 12:59:00,83.9,62.0,25.66,SSE,153,3.0,10.0,48,0.00,,,0.00,weatherlink.com 1.10,2013-07-13 18:59:00,
2013-07-13 13:15:00,85.5,60.0,25.66,East,88,1.0,6.0,43,0.00,,,0.00,weatherlink.com 1.10,2013-07-13 19:15:00,
2013-07-13 13:30:00,85.9,61.0,25.66,ESE,108,3.0,8.0,43,0.00,,,0.00,weatherlink.com 1.10,2013-07-13 19:30:00,
2013-07-13 13:45:00,87.4,61.0,25.65,NE,37,9.0,13.0,41,0.00,,,0.00,weatherlink.com 1.10,2013-07-13 19:45:00,
2013-07-13 14:00:00,87.4,60.0,25.65,SE,124,2.0,10.0,39,0.00,,,0.00,weatherlink.com 1.10,2013-07-13 20:00:00,
2013-07-13 14:15:00,87.6,61.0,25.64,North,349,8.0,14.0,41,0.00,,,0.00,weatherlink.com 1.10,2013-07-13 20:15:00,
2013-07-13 14:30:00,87.8,61.0,25.64,ENE,69,9.0,10.0,41,0.00,,,0.00,weatherlink.com 1.10,2013-07-13 20:30:00,
2013-07-13 14:45:00,88.0,60.0,25.63,East,97,8.0,12.0,39,0.00,,,0.00,weatherlink.com 1.10,2013-07-13 20:45:00,
2013-07-13 15:00:00,88.3,61.0,25.64,ENE,77,9.0,14.0,40,0.00,,,0.00,weatherlink.com 1.10,2013-07-13 21:00:00,
2013-07-13 15:15:00,88.4,60.0,25.63,East,82,4.0,10.0,38,0.00,,,0.00,weatherlink.com 1.10,2013-07-13 21:15:00,
2013-07-13 15:30:00,88.7,59.0,25.63,ESE,104,7.0,17.0,37,0.00,,,0.00,weatherlink.com 1.10,2013-07-13 21:30:00,
2013-07-13 15:45:00,88.2,61.0,25.63,ENE,68,8.0,15.0,40,0.00,,,0.00,weatherlink.com 1.10,2013-07-13 21:45:00,
2013-07-13 16:00:00,88.6,61.0,25.63,ENE,70,10.0,17.0,39,0.00,,,0.00,weatherlink.com 1.10,2013-07-13 22:00:00,
2013-07-13 16:15:00,88.2,60.0,25.63,ENE,70,7.0,16.0,39,0.00,,,0.00,weatherlink.com 1.10,2013-07-13 22:15:00,
2013-07-13 16:30:00,88.4,60.0,25.64,ENE,72,9.0,17.0,39,0.00,,,0.00,weatherlink.com 1.10,2013-07-13 22:30:00,
2013-07-13 16:45:00,88.3,60.0,25.63,ENE,70,11.0,14.0,38,0.00,,,0.00,weatherlink.com 1.10,2013-07-13 22:45:00,
2013-07-13 17:00:00,87.1,61.0,25.63,ENE,62,9.0,12.0,42,0.00,,,0.00,weatherlink.com 1.10,2013-07-13 23:00:00,
2013-07-13 17:15:00,86.2,61.0,25.64,ENE,68,6.0,9.0,43,0.00,,,0.00,weatherlink.com 1.10,2013-07-13 23:15:00,
2013-07-13 17:30:00,85.8,61.0,25.63,ENE,67,9.0,9.0,43,0.00,,,0.00,weatherlink.com 1.10,2013-07-13 23:30:00,
2013-07-13 17:45:00,85.8,61.0,25.63,ENE,63,6.0,7.0,43,0.00,,,0.00,weatherlink.com 1.10,2013-07-13 23:45:00,
2013-07-13 18:00:00,84.6,63.0,25.63,East,87,5.0,6.0,48,0.00,,,0.00,weatherlink.com 1.10,2013-07-14 00:00:00,
2013-07-13 18:15:00,83.6,63.0,25.64,East,101,6.0,8.0,50,0.00,,,0.00,weatherlink.com 1.10,2013-07-14 00:15:00,
2013-07-13 18:30:00,82.4,63.0,25.64,ESE,107,5.0,6.0,52,0.00,,,0.00,weatherlink.com 1.10,2013-07-14 00:30:00,
2013-07-13 18:45:00,81.8,62.0,25.65,ESE,111,4.0,5.0,51,0.00,,,0.00,weatherlink.com 1.10,2013-07-14 00:45:00,
2013-07-13 19:00:00,81.5,62.0,25.65,ESE,117,2.0,2.0,52,0.00,,,0.00,weatherlink.com 1.10,2013-07-14 01:00:00,
2013-07-13 19:15:00,81.2,63.0,25.64,ESE,118,3.0,4.0,55,0.00,,,0.00,weatherlink.com 1.10,2013-07-14 01:15:00,
2013-07-13 19:30:00,80.4,65.0,25.64,SSE,167,1.0,3.0,59,0.00,,,0.00,weatherlink.com 1.10,2013-07-14 01:30:00,
2013-07-13 19:45:00,81.0,62.0,25.64,SSE,155,0.0,3.0,53,0.00,,,0.00,weatherlink.com 1.10,2013-07-14 01:45:00,
2013-07-13 20:00:00,79.9,66.0,25.63,SSE,160,0.0,1.0,63,0.00,,,0.00,weatherlink.com 1.10,2013-07-14 02:00:00,
2013-07-13 20:15:00,79.3,65.0,25.64,SSE,158,0.0,1.0,61,0.00,,,0.00,weatherlink.com 1.10,2013-07-14 02:15:00,
2013-07-13 20:30:00,79.2,65.0,25.64,NNE,22,3.0,4.0,62,0.00,,,0.00,weatherlink.com 1.10,2013-07-14 02:30:00,
2013-07-13 20:45:00,77.6,66.0,25.65,NNW,334,2.0,3.0,68,0.00,,,0.00,weatherlink.com 1.10,2013-07-14 02:45:00,
2013-07-13 21:00:00,76.8,66.0,25.66,NNW,339,3.0,5.0,69,0.00,,,0.00,weatherlink.com 1.10,2013-07-14 03:00:00,
2013-07-13 21:15:00,75.0,66.0,25.67,NW,314,2.0,5.0,74,0.00,,,0.00,weatherlink.com 1.10,2013-07-14 03:15:00,
2013-07-13 21:30:00,74.4,66.0,25.69,West,263,5.0,5.0,75,0.00,,,0.00,weatherlink.com 1.10,2013-07-14 03:30:00,
2013-07-13 22:00:00,75.4,60.0,25.71,NW,311,14.0,21.0,59,0.00,,,0.00,weatherlink.com 1.10,2013-07-14 04:00:00,
2013-07-13 22:15:00,73.0,60.0,25.72,WSW,250,17.0,21.0,64,0.00,,,0.00,weatherlink.com 1.10,2013-07-14 04:15:00,
2013-07-13 22:30:00,71.8,60.0,25.71,WNW,293,14.0,18.0,67,0.00,,,0.00,weatherlink.com 1.10,2013-07-14 04:30:00,
2013-07-13 22:45:00,70.0,61.0,25.70,West,274,13.0,31.0,72,0.00,,,0.00,weatherlink.com 1.10,2013-07-14 04:45:00,
2013-07-13 23:00:00,69.9,60.0,25.69,West,278,13.0,22.0,70,0.00,,,0.00,weatherlink.com 1.10,2013-07-14 05:00:00,
2013-07-13 23:15:00,69.7,60.0,25.68,WSW,257,12.0,19.0,71,0.00,,,0.00,weatherlink.com 1.10,2013-07-14 05:15:00,
2013-07-13 23:30:00,68.6,60.0,25.68,WSW,245,12.0,19.0,74,0.00,,,0.00,weatherlink.com 1.10,2013-07-14 05:30:00,
2013-07-13 23:45:00,68.3,60.0,25.68,WSW,257,13.0,16.0,75,0.00,,,0.00,weatherlink.com 1.10,2013-07-14 05:45:00,